Location: Borojevi?i
(45.0486°N, 16.2297°E)
Time: 08:19:57
(UTC+00:00)

IGS 5A - Pass Details

Date: 08 August 2020
Orbit: 583 x 588 km, 97.6° (Epoch: 21 September)

Event Time Altitude Azimuth Distance (km) Brightness Sun altitude
Exits shadow 19:41:18 23° 144° (SE) 1,266 4.6 -14.2°
Maximum altitude 19:43:43 57° 73° (ENE) 696 3.6 -14.5°
Drops below altitude 10° 19:47:48 10° 355° (N) 1,925 6.8 -15.1°
Sets 19:50:00 0° 352° (N) 2,831 7.8 -15.4°
